User: anonymous   Login
Location: Unspecified
(0.0000°N, 0.0000°E)
Time: 01:02:09
(UTC+00:00)
Language:

RAX-2 - Orbit

View from above orbital plane
View from above orbital plane
View from above satellite
View from above satellite

Ground track
Ground track

The orbit data is extracted from the following two-line orbital elements,

1 37853U 11061D   21023.51738091  .00001215  00000-0  71568-4 0  9997
2 37853 101.7246 220.2394 0165951 160.5396 200.2252 15.04861648503923
Epoch (UTC): 23 January 2021 12:25:01
Eccentricity: 0.0165951
inclination: 101.7246°
perigee height: 437 km
apogee height: 667 km
right ascension of ascending node: 220.2394°
argument of perigee: 160.5396°
revolutions per day: 15.04861648
mean anomaly at epoch: 200.2252°
orbit number at epoch: 50392

The dashed part of the orbit path shows where the satellite is in the earth's shadow,  

DLR